ORBCOMM FM19 [+]

Last updated on July 6, 2021, 3:36 p.m. UTC

1 25415U 98046C   21186.95948841  .00000032  00000-0  62265-4 0  9990
2 25415  44.9953 141.1149 0004535 276.3328 132.4959 14.33135864197088
UTC
Height (km)
Latitude
Longitude
Inclination
Orbital Period
UTC large
Height (km)
Speed (km/s)
/
Latitude / Longitude
Inclination (degrees)
Orbital Period (minutes)
Azimuth
Elevation
Range (km)
Doppler Factor
iOS Compass Heading
iOS Angle